Location: Sulphur Springs (historical)
(38.1246°N, 122.1900°W)
Time: 04:45:32
(UTC+00:00)

CZ-4B R/B - Pass Details

Date: 29 October 2020
Orbit: 495 x 648 km, 97.8° (Epoch: 29 November)

Event Time Altitude Azimuth Distance (km) Brightness Sun altitude
Rises 12:55:07 0° 12° (NNE) 2,836 7.6 -19.6°
Reaches altitude 10° 12:57:21 10° 13° (NNE) 1,906 6.7 -19.2°
Maximum altitude 13:01:29 87° 105° (ESE) 567 3.8 -18.4°
Drops below altitude 10° 13:05:22 10° 192° (SSW) 1,799 6.3 -17.6°
Sets 13:07:25 0° 193° (SSW) 2,663 7.2 -17.2°
